Alva, OK

3:47 AM CDT on April 29, 2017 (GMT -0500)
Alva Regional

Weather History for KAVK - April, 2013

Change the Weather History Date:

Monday, April 8, 2013

  Actual Average Record
Temperature  
Mean Temperature 68 °F -  
Max Temperature 78 °F 70 °F 89 °F (1977)
Min Temperature 59 °F 45 °F 28 °F (1964)
Cooling Degree Days 4    
Growing Degree Days 18 (Base 50)    
Moisture  
Dew Point 61 °F    
Average Humidity 84    
Maximum Humidity 100    
Minimum Humidity 61    
Precipitation  
Precipitation 0.00 in - - ()
Sea Level Pressure  
Sea Level Pressure 29.58 in    
Wind  
Wind Speed 14 mph (SE)    
Max Wind Speed 26 mph    
Max Gust Speed 33 mph    
Visibility 9 miles    
Events      
Averages and records for this station are not official NWS values.
T = Trace of Precipitation, MM = Missing Value Source: NWS Daily Summary

Daily Weather History Graph

Daily Weather History Graph

Search for Another Location

Airport or City:

Trip Planner

Search our weather history database for the weather conditions in past years. The results will help you decide how hot, cold, wet, or windy it might be!

Date:

Astronomy

Apr. 08, 2013 Rise Set
Actual Time 7:10 AM CDT 8:03 PM CDT
Civil Twilight 6:43 AM CDT 8:29 PM CDT
Nautical Twilight 6:12 AM CDT 9:01 PM CDT
Astronomical Twilight 5:40 AM CDT 9:33 PM CDT
Moon 5:58 AM CDT (4/8) 6:40 PM CDT (4/8)
Length of Visible Light 13h 46m
Length of Day
12h 53m
Waning Crescent, 3% of the Moon is Illuminated
Apr 8
Waning Crescent
Apr 10
New
Apr 18
First Quarter
Apr 25
Full
May 2
Last Quarter

Hourly Weather History & Observations

Time (CDT) Temp. Dew Point Humidity Pressure Visibility Wind Dir Wind Speed Gust Speed Precip Events Conditions
12:10 AM 59.0 °F 59.0 °F 100% 29.66 in 9.0 mi South 13.8 mph - N/A   Partly Cloudy
12:30 AM 59.0 °F 59.0 °F 100% 29.66 in 8.0 mi South 12.7 mph - N/A   Clear
12:50 AM 59.0 °F 59.0 °F 100% 29.66 in 8.0 mi South 15.0 mph - N/A   Clear
1:10 AM 59.0 °F 59.0 °F 100% 29.65 in 7.0 mi South 15.0 mph - N/A   Mostly Cloudy
1:30 AM 59.0 °F 59.0 °F 100% 29.64 in 7.0 mi South 13.8 mph - N/A   Overcast
1:50 AM 59.0 °F 59.0 °F 100% 29.64 in 8.0 mi South 13.8 mph - N/A   Overcast
2:10 AM 59.0 °F 59.0 °F 100% 29.63 in 8.0 mi South 13.8 mph - N/A   Mostly Cloudy
2:30 AM 59.0 °F 59.0 °F 100% 29.63 in 7.0 mi SSE 10.4 mph - N/A   Overcast
2:50 AM 59.0 °F 59.0 °F 100% 29.63 in 7.0 mi SSE 8.1 mph - N/A   Overcast
3:10 AM 59.0 °F 59.0 °F 100% 29.62 in 7.0 mi SSE 9.2 mph - N/A   Overcast
3:30 AM 59.0 °F 59.0 °F 100% 29.61 in 7.0 mi SSE 8.1 mph - N/A   Overcast
3:50 AM 60.8 °F 60.8 °F 100% 29.60 in 7.0 mi SSE 9.2 mph - N/A   Overcast
4:10 AM 60.8 °F 60.8 °F 100% 29.60 in 7.0 mi SSE 5.8 mph - N/A   Overcast
4:30 AM 59.0 °F 59.0 °F 100% 29.59 in 6.0 mi SE 8.1 mph - N/A   Mostly Cloudy
4:50 AM 59.0 °F 59.0 °F 100% 29.59 in 5.0 mi ESE 4.6 mph - N/A   Mostly Cloudy
5:10 AM 59.0 °F 59.0 °F 100% 29.59 in 5.0 mi East 4.6 mph - N/A   Overcast
5:30 AM 59.0 °F 59.0 °F 100% 29.59 in 5.0 mi East 5.8 mph - N/A   Overcast
5:50 AM 59.0 °F 59.0 °F 100% 29.60 in 5.0 mi East 5.8 mph - N/A   Overcast
6:10 AM 59.0 °F 59.0 °F 100% 29.60 in 6.0 mi ESE 6.9 mph - N/A   Overcast
6:30 AM 59.0 °F 59.0 °F 100% 29.60 in 5.0 mi East 4.6 mph - N/A   Overcast
6:50 AM 59.0 °F 59.0 °F 100% 29.61 in 5.0 mi NE 6.9 mph - N/A   Overcast
7:10 AM 59.0 °F 59.0 °F 100% 29.62 in 5.0 mi ENE 8.1 mph - N/A   Overcast
7:30 AM 59.0 °F 59.0 °F 100% 29.62 in 7.0 mi East 9.2 mph - N/A   Overcast
7:50 AM 59.0 °F 59.0 °F 100% 29.62 in 6.0 mi ESE 10.4 mph - N/A   Overcast
8:10 AM 60.8 °F 60.8 °F 100% 29.62 in 5.0 mi ESE 11.5 mph - N/A   Overcast
8:30 AM 60.8 °F 60.8 °F 100% 29.63 in 5.0 mi ESE 11.5 mph - N/A   Overcast
8:50 AM 62.6 °F 62.6 °F 100% 29.62 in 6.0 mi ESE 13.8 mph - N/A   Overcast
9:10 AM 62.6 °F 62.6 °F 100% 29.62 in 8.0 mi ESE 11.5 mph - N/A   Mostly Cloudy
9:30 AM 64.4 °F 62.6 °F 94% 29.62 in 8.0 mi ESE 16.1 mph 21.9 mph N/A   Mostly Cloudy
9:50 AM 64.4 °F 62.6 °F 94% 29.62 in 9.0 mi SE 15.0 mph - N/A   Scattered Clouds
10:10 AM 66.2 °F 62.6 °F 88% 29.63 in 10.0 mi SE 15.0 mph - N/A   Mostly Cloudy
10:30 AM 66.2 °F 60.8 °F 83% 29.63 in 10.0 mi SE 13.8 mph - N/A   Overcast
10:50 AM 66.2 °F 59.0 °F 78% 29.63 in 10.0 mi SE 15.0 mph 19.6 mph N/A   Overcast
11:10 AM 68.0 °F 60.8 °F 78% 29.63 in 10.0 mi SE 13.8 mph 19.6 mph N/A   Mostly Cloudy
11:30 AM 68.0 °F 59.0 °F 73% 29.62 in 10.0 mi SE 15.0 mph 19.6 mph N/A   Overcast
11:50 AM 68.0 °F 59.0 °F 73% 29.62 in 10.0 mi SE 16.1 mph - N/A   Mostly Cloudy
12:10 PM 69.8 °F 59.0 °F 68% 29.62 in 10.0 mi SSE 18.4 mph - N/A   Mostly Cloudy
12:30 PM 69.8 °F 59.0 °F 68% 29.61 in 10.0 mi SSE 17.3 mph 21.9 mph N/A   Mostly Cloudy
12:50 PM 69.8 °F 59.0 °F 68% 29.61 in 10.0 mi SE 19.6 mph 25.3 mph N/A   Mostly Cloudy
1:10 PM 71.6 °F 59.0 °F 64% 29.60 in 10.0 mi SSE 17.3 mph 23.0 mph N/A   Scattered Clouds
1:30 PM 71.6 °F 60.8 °F 69% 29.59 in 10.0 mi SSE 18.4 mph 24.2 mph N/A   Partly Cloudy
1:50 PM 73.4 °F 60.8 °F 65% 29.58 in 10.0 mi SSE 18.4 mph 21.9 mph N/A   Partly Cloudy
2:10 PM 73.4 °F 62.6 °F 69% 29.57 in 10.0 mi SE 17.3 mph 21.9 mph N/A   Partly Cloudy
2:30 PM 73.4 °F 62.6 °F 69% 29.56 in 10.0 mi SSE 17.3 mph - N/A   Clear
2:50 PM 75.2 °F 62.6 °F 65% 29.56 in 10.0 mi SSE 16.1 mph 24.2 mph N/A   Clear
3:10 PM 75.2 °F 64.4 °F 69% 29.56 in 10.0 mi SSE 16.1 mph - N/A   Clear
3:30 PM 77.0 °F 62.6 °F 61% 29.55 in 10.0 mi SE 16.1 mph - N/A   Clear
3:50 PM 75.2 °F 62.6 °F 65% 29.53 in 10.0 mi SE 12.7 mph - N/A   Clear
4:10 PM 77.0 °F 64.4 °F 65% 29.52 in 10.0 mi SE 10.4 mph - N/A   Clear
4:30 PM 77.0 °F 64.4 °F 65% 29.51 in 10.0 mi SE 17.3 mph - N/A   Partly Cloudy
4:50 PM 77.0 °F 64.4 °F 65% 29.51 in 10.0 mi SSE 18.4 mph - N/A   Clear
5:10 PM 78.8 °F 64.4 °F 61% 29.50 in 10.0 mi SE 19.6 mph 24.2 mph N/A   Clear
5:50 PM 78.8 °F 64.4 °F 61% 29.50 in 10.0 mi SSE 20.7 mph 28.8 mph N/A   Scattered Clouds
6:10 PM 77.0 °F 64.4 °F 65% 29.50 in 10.0 mi SSE 23.0 mph 28.8 mph N/A   Partly Cloudy
6:30 PM 75.2 °F 64.4 °F 69% 29.50 in 10.0 mi SSE 23.0 mph 29.9 mph N/A   Clear
6:50 PM 75.2 °F 64.4 °F 69% 29.51 in 10.0 mi SSE 19.6 mph 26.5 mph N/A   Clear
7:10 PM 75.2 °F 64.4 °F 69% 29.51 in 10.0 mi SSE 20.7 mph 24.2 mph N/A   Clear
7:30 PM 73.4 °F 62.6 °F 69% 29.51 in 10.0 mi SSE 19.6 mph - N/A   Clear
7:50 PM 73.4 °F 62.6 °F 69% 29.51 in 10.0 mi SE 20.7 mph 26.5 mph N/A   Clear
8:10 PM 71.6 °F 62.6 °F 73% 29.51 in 10.0 mi SSE 23.0 mph 29.9 mph N/A   Partly Cloudy
8:30 PM 71.6 °F 62.6 °F 73% 29.51 in 10.0 mi SSE 23.0 mph 33.4 mph N/A   Mostly Cloudy
8:50 PM 71.6 °F 62.6 °F 73% 29.51 in 10.0 mi SSE 23.0 mph 32.2 mph N/A   Overcast
9:10 PM 69.8 °F 62.6 °F 78% 29.52 in 10.0 mi SSE 25.3 mph 32.2 mph N/A   Overcast
9:30 PM 69.8 °F 62.6 °F 78% 29.53 in 10.0 mi SSE 26.5 mph 33.4 mph N/A   Overcast
9:50 PM 68.0 °F 62.6 °F 83% 29.55 in 10.0 mi SSE 20.7 mph 28.8 mph N/A   Overcast
10:10 PM 68.0 °F 62.6 °F 83% 29.56 in 10.0 mi SSE 20.7 mph 28.8 mph N/A   Overcast
10:30 PM 68.0 °F 62.6 °F 83% 29.56 in 10.0 mi South 19.6 mph 24.2 mph N/A   Overcast
10:50 PM 66.2 °F 62.6 °F 88% 29.57 in 10.0 mi South 19.6 mph 26.5 mph N/A   Overcast
11:10 PM 66.2 °F 62.6 °F 88% 29.56 in 10.0 mi South 21.9 mph 26.5 mph N/A   Overcast
11:30 PM 66.2 °F 62.6 °F 88% 29.56 in 10.0 mi South 18.4 mph 26.5 mph N/A   Overcast
11:50 PM 66.2 °F 62.6 °F 88% 29.55 in 10.0 mi South 16.1 mph 24.2 mph N/A   Overcast